Location: Antioch
(36.3559°N, 86.2550°W)
Time: 00:05:30
(UTC+00:00)

Daily predictions for brighter satellites

Satellite Brightness Start Highest point End
(mag) Time Altitude Azimuth Time Altitude Azimuth Time Altitude Azimuth
Cosmos 44 4.0 00:05:13 10° NNW 00:10:21 40° NE 00:15:21 10° ESE
ERS-2 2.4 00:07:16 10° NNE 00:10:47 44° E 00:14:16 10° S
Cosmos 1633 Rocket 4.3 00:09:37 10° SE 00:12:50 20° E 00:16:04 10° NE
Timation 1 Rocket 4.3 00:08:39 10° NNW 00:14:36 66° ENE 00:20:31 10° SSE
RESURS DK-1 2.9 00:10:53 10° NNW 00:14:58 64° WSW 00:19:02 10° SSE
Cosmos 2322 Rocket 3.6 00:14:08 10° SE 00:17:29 16° E 00:20:49 10° ENE
SAR-Lupe-4 3.7 00:15:30 10° NNE 00:18:59 50° E 00:22:27 10° S
Meteor 2-17 Rocket 4.5 00:13:26 10° S 00:19:34 88° E 00:25:42 10° N
Cosmos 1867 3.6 00:15:34 10° SSW 00:20:59 88° WNW 00:26:28 10° NNE
USA 305 4.0 00:18:19 10° WSW 00:22:22 42° NW 00:26:27 10° NNE
Atlas Centaur 2 4.2 00:17:33 10° WSW 00:22:52 24° SSW 00:27:20 10° SSE
Okean O Rocket 4.2 00:19:43 10° SSW 00:23:20 25° W 00:26:57 10° NW
Centaur D-1AR AC-48 4.2 00:21:33 10° WSW 00:24:52 14° SSW 00:27:11 10° S
Cosmos 2082 3.6 00:19:57 10° NNW 00:25:35 82° ENE 00:31:12 10° SSE
PSLV R/B 3.9 00:22:48 10° NNE 00:26:55 88° ESE 00:30:59 10° SSW
Cosmos 1741 Rocket 4.0 00:22:22 10° NNW 00:27:43 82° ENE 00:33:01 10° SSE
CZ-4 R/B 1.1 00:24:00 10° SSE 00:27:49 79° ENE 00:31:40 10° N
Cosmos 1110 Rocket 4.2 00:23:15 10° SSW 00:28:34 80° WNW 00:33:55 10° NNE
USA 307 4.2 00:26:20 10° WSW 00:30:20 38° NW 00:34:21 10° NNE
ERBS 3.1 00:28:09 10° S 00:31:07 31° SE 00:32:34 21° E
Meteor 1-20 Rocket 4.4 00:26:30 10° SSE 00:31:38 43° E 00:36:45 10° NNE
Cosmos 1697 Rocket 4.3 00:26:41 10° SW 00:31:49 35° WNW 00:36:59 10° N
IRS-1C Rocket 4.3 00:28:13 10° S 00:33:28 78° WSW 00:38:46 10° NNW
SL-24 R/B - RUBIN 2 4.4 00:29:19 10° NW 00:34:51 67° WSW 00:39:41 10° SSE
USA 306 4.4 00:32:46 10° WSW 00:36:38 33° NW 00:40:32 10° NNE
SL-16 R/B 2.8 00:31:49 10° SSE 00:36:48 33° ESE 00:41:47 10° NE
SAR-Lupe-1 4.1 00:33:26 10° NNE 00:37:02 86° WNW 00:40:37 10° SSW
USA 308 4.5 00:36:48 10° W 00:40:40 32° NW 00:44:32 10° NNE
Ariane Rocket 4.5 00:43:58 17° ENE 00:43:58 17° ENE 00:46:50 10° NNE
HJ-1C 3.2 00:42:10 10° SSE 00:45:28 69° ENE 00:48:47 10° N
Cosmos 1805 Rocket 4.3 00:41:51 10° SSW 00:46:06 55° W 00:50:24 10° N
SeaSat 1 3.6 00:42:11 10° N 00:46:52 44° WNW 00:51:31 10° SW
BREEZE-M DEB (TANK) 4.5 00:45:34 10° S 00:46:56 17° SSE 00:46:56 17° SSE
Cosmos 1689 Rocket 3.3 00:45:29 10° N 00:48:13 42° WNW 00:50:57 10° SSW
Abrixas rocket 1.3 00:48:04 10° SW 00:50:34 79° SE 00:50:44 72° E
DMSP B5D2-2 4.2 00:46:54 10° NNE 00:51:58 48° E 00:56:58 10° S
Cosmos 1271 Rocket 2.8 00:51:02 10° N 00:54:40 48° E 00:56:23 26° SE
Cosmos 1602 3.8 00:52:17 10° S 00:56:00 50° E 00:59:47 10° NNE
Cosmos 2263 Rocket 2.4 00:53:25 10° N 00:58:45 45° ENE 01:01:17 27° ESE
USA 234 4.2 00:53:07 10° NNE 00:59:16 46° NW 01:05:26 10° WSW
Cosmos 2154 Rocket 4.0 00:53:45 10° SSE 00:59:50 57° E 01:05:53 10° NNE
Cosmos 1461 3.1 00:55:12 10° SSW 00:59:50 71° ESE 01:03:13 19° NE
GP-B 4.0 01:02:28 30° NE 01:02:28 30° NE 01:05:22 10° NNE
SL-08 RB Rocket 3.5 00:56:56 10° SSE 01:01:22 73° ENE 01:05:52 10° N
Nadezhda 3 Rocket 4.2 00:59:13 10° N 01:05:20 47° E 01:11:25 10° SSE
H-2A R/B 3.1 01:00:22 10° S 01:05:32 49° W 01:10:50 10° NNW
Cosmos 1666 Rocket 3.7 01:03:41 10° SSW 01:08:02 72° W 01:12:22 10° N
Cosmos 2074 Rocket 4.2 01:02:12 10° S 01:08:28 77° W 01:14:45 10° N
ARGOS 3.5 01:04:29 10° S 01:09:51 68° WSW 01:15:16 10° NNW
Cosmos 1610 Rocket 4.3 01:04:34 10° S 01:10:39 70° E 01:16:50 10° NNE
Cosmos 1862 Rocket 3.6 01:10:14 10° N 01:14:35 52° ENE 01:14:35 52° ENE
Helios 1A Rocket 3.8 01:14:59 10° S 01:18:55 48° W 01:22:53 10° NNW
MetOp-A 4.1 01:17:36 32° SE 01:19:58 61° ENE 01:25:14 10° N
Cosmos 2184 Rocket 4.4 01:15:24 10° SSW 01:21:28 62° W 01:27:35 10° N
Cosmos 1295 Rocket 4.4 01:19:08 10° S 01:25:25 77° E 01:31:40 10° N
CZ-2C R/B 3.5 01:21:15 10° N 01:26:34 50° WNW 01:31:45 10° SSW
Meteor 1-18 Rocket 4.3 01:20:42 10° N 01:26:34 62° E 01:28:27 42° SE
COSMOS 2455 3.1 01:22:16 10° NNW 01:28:15 69° WSW 01:32:50 18° SSE
Cosmos 1437 4.4 01:26:02 10° NNW 01:28:32 30° W 01:28:32 30° W
CSL-04 Rocket 4.4 01:25:33 10° S 01:30:58 54° W 01:36:24 10° NNW
Lacrosse 5 rocket 2.3 01:28:48 10° NW 01:32:54 44° SW 01:33:43 38° SSW
Cosmos 2360 Rocket 3.8 01:30:27 10° S 01:32:13 20° SSE 01:32:13 20° SSE
Meteor 2-12 Rocket 4.4 01:33:16 10° S 01:39:18 85° W 01:45:24 10° N
Cosmos 1992 Rocket 3.8 01:35:16 10° SSW 01:40:26 82° ESE 01:40:26 82° ESE
SME Rocket 4.2 01:34:33 10° NNE 01:43:14 89° ESE 01:48:45 10° SSW
Cosmos 2341 Rocket 3.9 01:38:39 10° S 01:44:56 68° E 01:51:12 10° NNE
Cosmos 962 Rocket 4.3 01:39:45 10° S 01:45:52 79° E 01:52:07 10° N
Cosmos 968 Rocket 4.1 01:55:32 10° NNW 01:59:27 51° NNW 01:59:27 51° NNW
Cosmos 2322 Rocket 2.7 01:55:26 10° SW 02:00:56 58° WNW 02:03:06 35° N
SL-16 R/B 3.8 02:15:51 10° WSW 02:20:49 31° WNW 02:25:36 11° N
Cosmos 2263 Rocket 4.2 02:38:12 10° NW 02:42:16 21° W 02:43:04 21° WSW
Cosmos 2082 Rocket 4.4 08:55:33 20° NE 08:55:33 20° NE 08:57:24 10° NE
Cosmos 1980 Rocket 4.3 09:02:29 22° NE 09:03:31 23° ENE 09:07:55 10° ESE
ALOS 3.7 09:39:41 10° NNE 09:42:44 34° NE 09:42:44 34° NE
H-2A R/B 4.2 09:45:03 38° SW 09:52:43 58° S 09:59:07 10° E
ISS -0.6 10:02:06 12° NE 10:02:06 12° NE 10:02:20 10° NE
Cosmos 292 Rocket 4.5 09:59:11 43° NNE 10:00:12 51° ENE 10:04:53 10° SE
H-2A R/B 3.2 10:02:45 10° SE 10:06:52 42° ENE 10:10:55 10° N
Cosmos 2278 3.7 10:10:01 22° NNW 10:13:49 80° ENE 10:19:30 10° SSE
CBERS 1 LM4 rocket 4.3 10:10:17 10° NNE 10:15:12 82° ESE 10:15:51 66° S
SeaSat 1 2.5 10:13:02 10° SSE 10:17:56 76° ENE 10:20:53 25° NNW
Meteor 1-27 4.1 10:22:22 63° W 10:22:40 64° W 10:28:12 10° N
Meteor 2-15 4.4 10:24:04 52° WSW 10:24:57 57° W 10:31:02 10° N
S3M 4.2 10:19:02 10° S 10:25:05 70° E 10:31:10 10° NNE
ATLAS CENTAUR R/B 3.8 10:30:40 10° N 10:33:51 22° NE 10:37:11 10° ESE
Cosmos 1932 4.3 10:30:29 14° NNW 10:35:58 86° WSW 10:42:09 10° SSE
Cosmos 2082 Rocket 3.5 10:37:25 24° NW 10:37:25 24° NW 10:40:59 10° N
FENGYUN 3A 3.8 10:32:10 10° N 10:37:24 50° WNW 10:38:30 43° WSW
Cosmos 1745 Rocket 4.2 10:32:59 10° N 10:39:15 74° E 10:45:33 10° SSE
Iridium 4 Rocket 3.9 10:43:04 39° WNW 10:43:04 39° WNW 10:47:13 10° NNW
Cosmos 1452 Rocket 4.3 10:44:07 31° SW 10:44:07 31° SW 10:47:26 10° SSW
SL-08 ROCKET BODY 4.3 10:37:19 10° N 10:43:23 75° W 10:49:31 10° S
COSMO-SKYMED 1 3.6 10:39:17 10° SSE 10:43:25 46° ENE 10:47:34 10° N
NOSS 2-2 (C) 2.8 10:44:15 73° WNW 10:44:18 73° NW 10:47:51 10° NNE
Meteor 1-4 Rocket 3.2 10:41:50 10° S 10:45:29 56° E 10:49:09 10° NNE
CZ-4B R/B 4.3 10:41:33 10° NNE 10:45:47 44° E 10:50:05 10° S
Cosmos 1980 Rocket 2.4 10:44:25 23° NW 10:47:44 47° WSW 10:53:08 10° S
Milstar 3 Cent rocket 3.8 10:45:53 14° SSW 10:48:34 21° SSE 10:52:34 10° ESE
Meteor 2-3 Rocket 4.2 10:44:31 10° NNW 10:49:42 37° W 10:54:55 10° SSW
Cosmos 1862 4.0 10:45:50 10° N 10:49:49 55° E 10:53:46 10° SSE
SL-08 R/B 4.4 10:47:44 10° NNW 10:53:47 57° W 10:59:44 10° S
Meteor 1-31 Rocket 2.6 10:49:56 10° N 10:53:48 65° WNW 10:57:18 12° SSW
Cosmos 1743 Rocket 4.4 10:51:55 10° N 10:56:19 54° E 11:00:42 10° SSE
Cosmos 1606 4.0 10:53:36 10° SSE 10:57:15 43° E 11:00:57 10° NNE
Cosmos 2322 Rocket 3.5 10:52:04 10° N 10:57:25 41° ENE 11:02:44 10° SE
ADEOS 3.5 10:53:33 10° N 10:58:42 61° WNW 11:03:49 10° SSW
METEOR-M 4.4 10:53:45 10° N 10:58:45 42° WNW 11:03:17 12° SW
Cosmos 1110 Rocket 4.0 10:53:54 10° NNW 10:59:05 60° WSW 11:04:13 10° S
NOSS 2-2 (E) 3.7 11:00:09 34° NW 11:00:10 34° NW 11:03:31 10° NNE
Cosmos 1461 3.7 11:05:10 29° W 11:05:49 31° WSW 11:09:31 10° S
Meteor 2-2 Rocket 4.3 11:01:17 10° SSW 11:07:06 60° W 11:13:03 10° N
CZ-4B R/B 4.1 11:05:50 10° N 11:09:23 38° WNW 11:12:03 15° SW
X-37B 2.7 11:12:44 13° NNW 11:14:27 19° N 11:16:48 10° ENE
SL-16 R/B 2.3 11:11:49 10° NNW 11:17:32 80° ENE 11:23:11 10° SSE
Cosmos 2315 Rocket 4.0 11:11:24 10° S 11:17:37 86° W 11:23:52 10° N
ALOS 3.8 11:18:19 10° NNW 11:21:11 16° WNW 11:21:15 16° WNW
Cosmos 1408 Rocket 4.2 11:19:42 10° NNW 11:23:42 33° W 11:27:39 10° SSW
deb Chang Zheng 4 3.5 11:24:41 10° N 11:28:54 60° WNW 11:33:06 10° SSW
SKYMED 2 3.8 11:27:15 10° S 11:31:24 46° W 11:35:36 10° NNW
H-2A R/B 2.9 11:28:37 10° N 11:32:26 54° WNW 11:36:14 10° SSW
Cosmos 1500 Rocket 3.7 11:31:51 10° NNW 11:36:02 48° W 11:40:13 10° SSW
Cosmos 2221 3.7 11:33:39 10° SW 11:37:01 21° WNW 11:40:23 10° NNW
MOS 1 Rocket 3.5 11:33:04 10° SSW 11:37:04 39° W 11:41:07 10° NNW
YAOGAN 6 2.5 11:36:47 10° N 11:40:17 62° WNW 11:43:45 10° SSW
CZ-3 R/B 3.5 11:30:33 10° SW 11:41:29 28° S 11:46:04 10° ESE
H-2A R/B 3.7 11:40:31 10° SW 11:42:57 15° W 11:45:23 10° WNW
Meteor PRIRODA 4.3 11:40:00 10° N 11:43:23 34° WNW 11:46:45 10° SW
Sich 1 3.4 11:39:22 10° N 11:43:48 72° E 11:48:11 10° SSE
COSMOS 2487 3.4 11:41:09 10° S 11:44:26 50° ESE 11:47:45 10° NNE
SJ-7 4.3 11:41:14 10° N 11:45:10 62° WNW 11:49:07 10° SSW
ASTRO E2 3.9 11:41:54 10° WSW 11:45:34 35° S 11:49:14 10° ESE
USA 215 3.6 11:41:37 10° NE 11:48:10 71° SE 11:54:40 10° SW
CZ-4B R/B 2.6 11:47:08 10° SSW 11:49:41 21° W 11:52:13 10° NW
SL-27 R/B 3.8 11:49:24 10° WSW 11:52:06 21° WNW 11:54:51 10° NNW
